Westport (NZWS)

Aerodrome — Elev 13
New Zealand
S041.44.17.002 E171.34.50.999
Loading chart...

Current Weather

NZWS 180700Z 12005KT 080V160 20KM BKN180 09/04 Q1002 RMK AUTO NZHK VATSIM USE ON

Published 36 minutes ago

Airport Activity

Loading chart...
Loading chart...

Positions

CallsignRadio Name / Freq / Voice Room / TypeFrequencyVoice RoomType
NZCH-T_CTR Christchurch Control
123.700
nzch-t_ctr
123.700nzch-t_ctr
UNICOM NZZC UNICOM
122.800
unicom_nzzc
122.800unicom_nzzc

Charts

Departure Charts

Departure